Regional Weather Roundup
Issued by NWS

Home | Current Version | Previous Version | Graphics & Text | Print | Product List | Glossary On
Versions: 1 2 3 4 5 6 7 8 9 10 11 12 13 14 15 16 17 18 19 20 21 22 23 24 25 26 27 28 29 30 31 32 33 34 35 36 37 38 39 40 41 42 43 44 45 46 47 48 49 50
000
ASUS43 KFSD 312010
RWRSD

WEATHER ROUNDUP FOR SOUTH DAKOTA
NATIONAL WEATHER SERVICE SIOUX FALLS SD
300 PM CDT THU JUL 31 2014

NOTE: "FAIR" INDICATES FEW OR NO CLOUDS BELOW 12,000 FEET WITH NO
SIGNIFICANT WEATHER AND/OR OBSTRUCTIONS TO VISIBILITY.


SDZ001>005-009-010-012>017-312100-
NORTHWEST AND NORTH CENTRAL SOUTH DAKOTA

CITY           SKY/WX    TMP DP  RH WIND       PRES   REMARKS
BUFFALO          N/A     88  46  23 VRB6      30.06F
FAITH            N/A     88  50  27 NW15      30.09F
MOBRIDGE       SUNNY     83  55  38 CALM      30.04F
$$

SDZ012>016-024>037-041>051-057-063-072>074-312100-
SOUTHWEST AND SOUTH CENTRAL SOUTH DAKOTA

CITY           SKY/WX    TMP DP  RH WIND       PRES   REMARKS
RAPID CTY ARPT SUNNY     85  52  32 CALM      30.15F
PIERRE         PTSUNNY   83  55  38 CALM      30.05S
CUSTER         PTSUNNY   75  44  33 W7        30.28F
ELLSWORTH AFB  SUNNY     83  48  29 VRB2      30.14F
PHILIP         SUNNY     91  48  22 NE5G18    30.07F
PINE RIDGE     SUNNY     83  51  33 NE3       30.16F
WINNER         FAIR      87  51  28 CALM      30.07S
$$

SDZ004>011-016>023-039-040-312100-
NORTHEAST SOUTH DAKOTA

CITY           SKY/WX    TMP DP  RH WIND       PRES   REMARKS
ABERDEEN       PTSUNNY   79  53  40 E3        30.06S
WATERTOWN      PTSUNNY   80  53  39 W8        30.07S
SISSETON         N/A     81  57  43 N8        30.04S
$$

SDZ017-020-022-023-036>040-048>070-312100-
SOUTHEAST SOUTH DAKOTA

CITY           SKY/WX    TMP DP  RH WIND       PRES   REMARKS
SIOUX FALLS    LGT RAIN  76  59  55 VRB6      30.07S
HURON          MOSUNNY   83  53  35 NE9       30.05F
CHAMBERLAIN    MOSUNNY   81  56  41 CALM      30.06S
MITCHELL       MOSUNNY   80  61  52 CALM      30.07F
YANKTON        MOSUNNY   72  61  68 E12       30.07S
$$

ABBREVIATIONS USED IN REMARKS
   TC - TEMPERATURE IN CELSIUS
  WCI - WIND CHILL INDEX
   HX - HEAT INDEX
  VSB - VISIBILITY




USA.gov is the U.S. government's official web portal to all federal, state and local government web resources and services.